Weather History for Vacaville, CA

Change the Weather History Date:

Wednesday, January 30, 2013

  Actual Average Record
Temperature  
Mean Temperature 49 °F -  
Max Temperature 64 °F 56 °F 77 °F (1976)
Min Temperature 34 °F 37 °F 22 °F (1949)
Degree Days  
Heating Degree Days 16    
Moisture  
Dew Point 39 °F    
Average Humidity 73    
Maximum Humidity 100    
Minimum Humidity 40    
Precipitation  
Precipitation 0.00 in - - ()
Sea Level Pressure  
Sea Level Pressure 30.31 in    
Wind  
Wind Speed 2 mph (ESE)    
Max Wind Speed 6 mph    
Max Gust Speed -    
Visibility 10 miles    
Events      
Averages and records for this station are not official NWS values.
T = Trace of Precipitation, MM = Missing Value Source: NWS Daily Summary

Daily Weather History Graph

Daily Weather History Graph

Search for Another Location

Airport:

Trip Planner

Search our weather history database for the weather conditions in past years. The results will help you decide how hot, cold, wet, or windy it might be!

Date:

Astronomy

Jan. 30, 2013 Rise Set
Actual Time 7:14 AM PST 5:28 PM PST
Civil Twilight 6:46 AM PST 5:56 PM PST
Nautical Twilight 6:14 AM PST 6:28 PM PST
Astronomical Twilight 5:43 AM PST 6:59 PM PST
Moon 9:28 PM PST 8:48 AM PST
Length of Visible Light 11h 10m
Length of Day
10h 14m
Waning Gibbous, 87% of the Moon is Illuminated
Jan 30
Waning Gibbous
Feb 3
Last Quarter
Feb 9
New
Feb 17
First Quarter
Feb 25
Full

Hourly Weather History & Observations

Time (PST) Temp. Windchill Dew Point Humidity Pressure Visibility Wind Dir Wind Speed Gust Speed Precip Events Conditions
12:53 AM 43.0 °F - 37.0 °F 80% 30.31 in 10.0 mi Calm Calm - N/A   Clear
1:53 AM 44.1 °F - 37.9 °F 79% 30.30 in 10.0 mi Calm Calm - N/A   Clear
2:53 AM 42.1 °F - 37.9 °F 85% 30.31 in 10.0 mi Calm Calm - N/A   Clear
3:53 AM 37.9 °F 35.5 °F 36.0 °F 93% 30.30 in 10.0 mi ESE 3.5 mph - N/A   Clear
4:53 AM 37.9 °F - 36.0 °F 93% 30.30 in 10.0 mi Calm Calm - N/A   Clear
5:53 AM 41.0 °F 38.0 °F 37.9 °F 89% 30.31 in 10.0 mi SE 4.6 mph - N/A   Clear
6:53 AM 34.0 °F - 34.0 °F 100% 30.33 in 10.0 mi Calm Calm - N/A   Clear
7:53 AM 39.0 °F - 37.0 °F 93% 30.35 in 10.0 mi Calm Calm - N/A   Clear
8:53 AM 48.9 °F - 39.9 °F 71% 30.37 in 10.0 mi Calm Calm - N/A   Clear
9:53 AM 52.0 °F - 39.9 °F 63% 30.37 in 10.0 mi NNE 3.5 mph - N/A   Clear
10:53 AM 57.0 °F - 42.1 °F 57% 30.36 in 10.0 mi Variable 3.5 mph - N/A   Clear
11:53 AM 61.0 °F - 39.0 °F 44% 30.34 in 10.0 mi North 5.8 mph - N/A   Clear
12:53 PM 63.0 °F - 37.9 °F 40% 30.32 in 10.0 mi North 4.6 mph - N/A   Clear
1:53 PM 62.1 °F - 39.9 °F 44% 30.29 in 10.0 mi East 4.6 mph - N/A   Clear
2:53 PM 64.0 °F - 39.9 °F 41% 30.28 in 10.0 mi East 4.6 mph - N/A   Clear
3:53 PM 63.0 °F - 41.0 °F 45% 30.28 in 10.0 mi Calm Calm - N/A   Clear
4:53 PM 60.1 °F - 41.0 °F 49% 30.28 in 10.0 mi SE 5.8 mph - N/A   Clear
5:53 PM 53.1 °F - 41.0 °F 64% 30.29 in 10.0 mi SSE 3.5 mph - N/A   Clear
6:53 PM 45.0 °F - 39.0 °F 80% 30.30 in 10.0 mi Calm Calm - N/A   Clear
7:53 PM 42.1 °F - 39.0 °F 89% 30.29 in 10.0 mi Calm Calm - N/A   Clear
8:53 PM 45.0 °F 42.6 °F 41.0 °F 86% 30.29 in 10.0 mi WSW 4.6 mph - N/A   Clear
9:53 PM 45.0 °F 43.5 °F 41.0 °F 86% 30.29 in 10.0 mi WSW 3.5 mph - N/A   Clear
10:53 PM 39.0 °F - 37.9 °F 96% 30.30 in 10.0 mi Calm Calm - N/A   Clear
11:53 PM 42.1 °F - 39.0 °F 89% 30.31 in 10.0 mi Calm Calm - N/A   Clear